Wind_Speed
8 9 10 11 11 11 12 12 12 12 13 13 15 16 15 14 13 14 14 13 14 14 14 15 15 15 16 16 16 17 17 18 18 19 20 20 21 21 21 21 21 21 21 22
9 10 11 11 12 13 13 13 14 15 15 15 16 17 16 16 15 15 16 16 15 15 15 16 16 16 16 16 17 18 18 19 20 21 21 22 22 22 23 23 23 23 23 23
10 10 12 12 12 13 14 15 16 17 16 17 17 17 17 16 17 17 17 18 17 16 16 17 17 17 18 18 19 19 20 20 21 22 22 23 23 24 24 24 24 24 24 25
13 12 13 13 15 15 16 16 17 17 17 18 18 18 18 18 17 17 17 17 17 17 17 18 18 19 19 20 20 20 21 21 22 23 23 24 24 24 24 24 25 25 26 26
16 16 15 15 16 16 17 16 17 17 18 19 19 19 19 19 18 18 18 18 18 18 19 19 20 20 20 21 21 22 22 23 23 24 24 24 25 25 26 26 27 27 28 28
18 18 17 18 18 18 17 18 17 18 18 19 20 20 20 19 19 19 19 19 19 19 20 20 21 21 21 22 22 23 24 24 25 25 25 25 26 27 28 28 28 29 29 30
19 19 20 20 20 18 19 19 19 19 19 19 20 21 20 20 20 20 20 20 20 21 21 21 22 22 23 23 23 24 24 25 26 26 26 27 28 29 29 30 30 30 31 32
20 21 22 22 21 21 21 21 21 20 20 20 21 22 21 21 22 21 21 21 22 22 22 23 23 23 24 24 25 25 25 26 27 28 28 29 30 31 31 32 32 33 33 34
23 24 24 23 23 23 23 23 23 22 22 22 22 22 23 23 23 23 23 23 23 23 24 24 24 25 25 25 26 27 28 28 29 30 30 31 32 32 33 34 34 35 36 36
24 25 26 25 25 25 25 25 25 24 24 24 24 24 24 25 25 25 25 25 25 25 25 26 26 27 27 27 28 29 30 30 31 32 32 33 34 35 35 36 37 37 38 39
26 26 27 27 26 26 27 27 27 27 27 27 26 26 26 27 27 27 27 27 27 27 28 28 28 29 29 30 31 31 32 32 33 34 34 35 36 37 37 38 39 40 40 41
28 28 29 28 27 27 28 28 29 29 28 28 28 28 28 28 28 28 29 29 29 29 30 30 30 31 31 32 33 33 34 34 35 36 37 38 38 39 39 40 41 42 43 44
30 30 30 30 29 29 29 29 30 30 30 30 30 30 30 30 30 30 30 31 30 31 31 32 32 32 33 33 34 35 36 37 37 38 39 40 41 41 42 42 43 44 45 46
31 31 31 31 31 31 31 31 31 31 31 31 31 31 31 32 32 31 32 32 32 33 33 34 34 34 35 36 36 37 38 39 40 41 42 42 43 44 44 45 46 46 47 48
32 33 33 33 33 32 32 32 32 32 32 32 32 33 33 33 33 33 34 34 35 35 35 36 36 37 38 38 39 40 41 42 43 44 45 46 46 47 47 48 49 49 50 50
34 34 34 34 34 34 34 34 34 34 34 34 34 34 34 34 35 35 36 36 37 37 37 38 38 39 40 41 42 43 44 45 46 47 48 49 49 50 50 51 51 52 52 52
35 35 35 35 35 35 35 36 36 36 36 36 36 36 36 36 37 37 38 39 39 39 39 40 41 42 42 43 45 45 46 47 48 49 49 50 51 51 52 52 52 52 53 53
36 37 37 37 37 37 37 37 37 37 37 37 37 37 38 38 39 39 39 39 40 40 41 41 42 43 44 45 46 47 48 49 49 50 51 51 52 52 52 53 53 54 55 55
38 38 37 38 38 37 37 37 38 38 38 38 38 38 39 38 39 39 40 40 41 41 42 43 44 45 46 47 48 49 50 51 51 52 53 53 54 54 55 55 56 56 56 56
37 37 37 37 38 38 38 38 38 38 38 39 39 40 40 40 41 41 42 42 42 43 44 45 46 47 48 49 50 51 51 52 53 53 54 55 55 56 56 57 57 57 57 57
36 37 37 37 37 38 38 38 38 38 39 40 40 41 41 42 43 43 44 45 45 45 46 47 48 49 50 51 52 52 53 53 54 55 55 56 56 57 57 57 57 57 58 57
36 36 37 37 37 38 38 39 39 40 40 41 42 42 43 44 44 45 46 47 48 48 49 49 50 50 51 52 53 54 54 55 56 57 57 57 58 58 58 58 58 58 58 58
36 37 37 37 38 39 39 40 40 41 42 42 43 43 44 45 46 47 47 48 49 50 51 52 52 53 54 55 55 56 56 56 57 57 58 58 58 58 58 58 58 58 57 57
37 37 38 38 39 40 41 41 42 42 42 42 43 43 44 45 45 46 47 48 49 50 51 53 54 55 56 56 56 56 56 56 57 57 57 57 57 56 56 56 55 55 55 55
38 39 39 40 40 41 41 41 41 41 41 41 42 42 43 44 45 46 47 48 49 50 51 53 54 54 55 55 55 55 54 54 54 54 54 54 54 54 54 54 54 54 53 53
40 40 41 41 41 41 41 41 41 41 41 42 42 43 44 45 46 47 47 49 50 50 51 52 52 52 52 52 52 52 52 52 52 53 53 53 53 53 52 52 52 52 52 51
41 41 41 41 41 41 41 42 42 42 43 43 43 44 44 45 46 47 48 48 49 49 49 50 50 50 50 51 51 51 52 52 52 51 51 51 51 50 49 49 49 49 48 48
Wind_Direction
247 248 249 250 248 246 244 244 246 244 244 250 257 262 265 266 265 265 266 266 267 267 268 270 272 273 275 277 278 280 281 282 284 286 289 293 296 299 301 302 303 305 305 305
254 260 259 258 256 252 251 250 249 249 250 255 257 261 263 264 264 266 268 268 269 269 269 270 272 274 275 278 280 283 285 286 287 289 291 293 295 297 299 300 301 302 302 302
246 258 263 266 265 260 257 255 255 256 257 257 258 260 263 266 265 267 270 270 269 268 270 272 273 275 276 278 282 285 286 287 289 291 292 293 294 296 297 297 297 299 299 301
251 254 262 266 265 263 262 259 259 261 260 259 261 263 264 264 266 268 269 269 269 268 270 272 273 275 276 279 282 284 286 288 289 290 291 293 294 296 296 296 297 298 298 299
255 256 260 263 265 266 266 264 262 263 263 263 262 264 264 264 265 266 268 268 269 269 271 274 275 276 278 282 283 285 286 288 289 290 291 293 294 295 295 295 295 296 297 298
258 258 260 262 263 265 267 267 264 264 265 264 263 263 265 266 265 266 268 270 271 271 272 274 275 277 280 283 285 286 287 288 289 290 291 293 294 295 295 295 295 296 296 297
260 261 262 261 262 264 266 269 267 266 266 265 263 264 265 264 265 267 269 270 271 272 273 275 277 279 280 282 284 285 287 288 289 289 291 292 293 294 295 295 295 295 296 297
262 262 262 262 263 264 266 267 268 269 268 266 265 264 263 264 266 268 269 270 271 272 274 276 278 279 280 282 283 285 288 289 290 290 291 292 293 294 294 294 294 295 296 298
262 263 266 266 266 265 265 266 269 269 269 268 266 265 264 264 266 267 268 269 270 272 275 276 278 280 281 281 283 285 288 289 289 290 291 292 293 294 294 294 295 295 297 298
262 264 265 265 265 265 265 266 267 268 268 269 268 267 268 267 267 268 269 270 271 273 275 276 277 279 280 281 282 285 287 289 289 290 290 291 293 294 294 294 295 296 297 298
262 263 265 266 267 267 266 265 265 266 267 269 270 269 268 268 268 269 270 271 272 273 274 275 276 278 280 281 282 284 286 287 289 290 290 291 293 293 293 294 295 296 297 297
261 262 264 266 266 266 266 266 266 267 268 270 271 271 270 271 270 271 271 272 273 274 275 276 277 279 280 281 283 284 286 287 288 290 290 291 293 293 293 294 295 296 296 296
262 262 264 266 267 268 268 269 268 268 269 270 271 272 272 272 272 272 272 273 274 275 276 277 279 280 281 282 283 284 286 287 288 290 291 292 293 293 293 294 294 295 295 295
262 263 264 265 267 268 269 270 270 270 270 271 271 272 273 273 273 273 274 275 276 276 277 279 280 280 281 282 283 284 286 288 289 290 291 292 293 293 293 294 294 294 294 295
263 264 265 266 267 268 269 270 270 271 272 272 272 273 274 273 273 274 275 275 275 277 278 279 280 281 282 283 284 285 287 288 289 290 291 292 293 293 293 293 293 294 294 294
264 265 265 266 267 268 269 270 271 271 272 273 273 274 274 273 274 274 275 276 276 277 278 279 280 281 282 283 284 286 287 288 289 290 291 292 293 293 293 293 293 294 294 294
264 265 266 267 268 269 270 270 271 272 272 273 273 273 273 273 274 275 276 276 277 278 279 279 280 281 282 283 285 286 287 288 289 290 291 292 293 293 293 293 293 293 294 294
265 266 266 267 268 269 270 271 271 272 273 273 273 274 274 274 275 276 277 277 278 278 280 281 282 283 284 285 286 287 289 290 290 291 292 293 293 293 293 293 293 293 294 294
266 267 268 268 269 269 270 271 272 272 273 273 274 275 275 275 276 276 277 278 278 279 280 281 283 284 285 287 288 289 290 290 291 292 292 293 293 293 293 293 294 294 294 294
266 266 267 268 269 270 270 271 272 272 273 273 274 275 275 275 276 276 277 278 280 281 281 282 283 285 286 287 289 289 290 291 291 292 292 293 293 293 293 293 294 294 294 294
266 266 267 268 269 270 271 272 273 274 274 275 275 276 276 276 277 278 278 279 281 282 283 284 285 286 287 288 289 290 291 291 292 292 293 293 294 294 294 294 294 294 294 293
267 267 268 268 269 270 272 273 274 275 276 276 276 277 277 278 279 279 280 281 281 283 284 285 286 287 288 289 290 291 291 291 292 292 292 293 294 294 294 294 294 294 293 293
268 269 269 270 271 272 273 274 275 276 277 277 277 278 278 279 280 281 282 282 283 284 285 286 287 288 289 290 291 291 291 292 292 292 293 293 294 294 293 293 293 294 294 293
269 270 271 272 272 274 275 276 277 277 277 278 278 279 280 281 281 282 284 284 285 286 287 288 289 290 291 292 292 292 292 292 292 292 293 294 294 294 294 294 294 294 294 294
270 271 272 273 274 274 275 276 276 277 277 278 279 280 281 282 284 285 286 287 287 288 289 289 290 291 291 292 292 292 292 292 293 293 293 294 294 295 295 294 294 294 294 294
271 272 273 274 274 274 275 276 277 277 278 279 281 282 283 284 285 285 286 287 288 289 290 290 291 292 292 292 293 293 292 293 293 294 295 296 296 297 296 295 295 295 295 294
272 273 273 273 274 274 275 276 277 277 278 280 281 282 283 284 285 286 287 289 290 290 291 292 292 293 293 293 293 293 294 294 295 296 296 297 298 298 298 298 297 297 295 295
Height
5843 5844 5845 5846 5847 5849 5850 5851 5852 5854 5854 5855 5855 5855 5856 5857 5857 5858 5858 5859 5860 5860 5861 5861 5861 5862 5862 5862 5862 5862 5862 5861 5861 5861 5860 5859 5858 5856 5855 5853 5851 5849 5847 5844
5842 5842 5843 5844 5846 5847 5847 5848 5849 5850 5852 5852 5852 5852 5853 5853 5854 5854 5855 5855 5856 5856 5857 5857 5857 5858 5858 5858 5858 5857 5857 5857 5856 5855 5855 5854 5852 5851 5849 5847 5845 5843 5841 5839
5839 5840 5841 5842 5843 5843 5844 5845 5846 5847 5849 5848 5848 5849 5849 5849 5850 5851 5851 5851 5852 5852 5852 5853 5853 5853 5853 5853 5853 5852 5852 5852 5851 5850 5849 5848 5846 5845 5843 5841 5839 5837 5835 5832
5836 5838 5838 5841 5840 5840 5841 5841 5842 5843 5843 5844 5844 5845 5845 5845 5846 5846 5847 5847 5847 5847 5848 5848 5848 5848 5848 5848 5848 5847 5847 5846 5845 5844 5843 5841 5840 5838 5837 5835 5832 5830 5828 5825
5832 5833 5834 5836 5835 5836 5836 5837 5838 5838 5839 5839 5839 5840 5840 5841 5841 5842 5842 5842 5842 5842 5843 5843 5843 5843 5842 5842 5842 5841 5841 5840 5839 5838 5836 5835 5833 5831 5830 5828 5825 5823 5820 5818
5828 5829 5830 5831 5831 5831 5833 5832 5833 5833 5833 5834 5834 5835 5835 5836 5836 5837 5837 5837 5837 5837 5837 5837 5837 5837 5837 5836 5836 5835 5834 5833 5832 5831 5829 5828 5826 5824 5822 5820 5818 5815 5813 5810
5823 5823 5824 5825 5826 5827 5829 5829 5828 5828 5828 5828 5829 5830 5831 5830 5831 5831 5832 5832 5832 5832 5832 5831 5831 5831 5830 5830 5829 5828 5827 5826 5825 5824 5822 5821 5819 5817 5814 5812 5810 5807 5805 5802
5818 5818 5820 5820 5821 5822 5822 5822 5822 5822 5823 5823 5823 5824 5824 5825 5825 5826 5826 5826 5826 5826 5826 5825 5825 5824 5824 5823 5822 5821 5821 5819 5818 5816 5815 5813 5811 5808 5806 5803 5801 5799 5796 5793
5813 5814 5813 5814 5815 5816 5816 5816 5816 5817 5817 5817 5817 5818 5818 5819 5819 5819 5820 5820 5820 5819 5819 5819 5818 5817 5817 5816 5815 5814 5813 5811 5810 5808 5806 5804 5802 5799 5797 5794 5792 5789 5786 5783
5806 5807 5807 5807 5808 5809 5809 5810 5810 5810 5811 5811 5811 5812 5812 5812 5812 5813 5813 5813 5813 5813 5812 5812 5811 5810 5809 5808 5807 5806 5805 5803 5801 5799 5797 5795 5793 5790 5787 5785 5782 5779 5776 5773
5800 5800 5800 5801 5802 5802 5802 5803 5803 5804 5804 5804 5804 5805 5805 5805 5805 5805 5805 5805 5805 5805 5804 5804 5803 5802 5801 5800 5798 5797 5796 5794 5792 5790 5788 5786 5783 5780 5777 5774 5771 5768 5765 5761
5792 5793 5793 5794 5794 5795 5795 5795 5796 5796 5797 5797 5797 5797 5797 5797 5797 5797 5797 5797 5796 5796 5795 5795 5794 5793 5792 5791 5789 5788 5786 5784 5782 5780 5778 5775 5772 5770 5766 5763 5760 5756 5752 5749
5784 5785 5785 5786 5786 5787 5787 5787 5788 5788 5788 5789 5789 5789 5789 5789 5788 5788 5788 5788 5787 5787 5786 5785 5785 5784 5782 5781 5779 5777 5776 5774 5772 5769 5767 5764 5761 5758 5755 5752 5748 5744 5740 5736
5776 5777 5777 5778 5778 5779 5779 5779 5779 5779 5780 5780 5780 5780 5780 5780 5779 5779 5779 5778 5778 5777 5776 5776 5775 5773 5772 5771 5769 5767 5765 5763 5760 5758 5755 5752 5749 5745 5742 5739 5736 5732 5728 5723
5767 5768 5769 5769 5770 5770 5770 5770 5770 5770 5771 5771 5771 5771 5770 5770 5770 5769 5769 5768 5768 5767 5766 5765 5764 5763 5761 5759 5758 5755 5753 5751 5748 5745 5742 5739 5735 5732 5728 5725 5721 5717 5714 5709
5758 5758 5759 5759 5760 5760 5760 5761 5761 5761 5761 5761 5761 5761 5760 5760 5759 5759 5758 5758 5757 5756 5755 5754 5753 5751 5749 5747 5745 5743 5741 5738 5735 5732 5728 5725 5721 5717 5714 5710 5706 5702 5698 5694
5748 5748 5749 5749 5750 5750 5751 5751 5751 5751 5751 5751 5750 5750 5750 5749 5749 5748 5747 5746 5745 5744 5743 5742 5740 5739 5737 5734 5732 5730 5727 5724 5721 5717 5714 5710 5706 5702 5698 5694 5690 5686 5682 5677
5737 5738 5739 5739 5740 5740 5740 5740 5740 5740 5740 5740 5740 5739 5739 5738 5737 5737 5736 5735 5734 5732 5731 5729 5727 5725 5723 5721 5718 5716 5712 5709 5706 5702 5699 5695 5691 5686 5682 5678 5674 5670 5666 5661
5727 5728 5728 5728 5729 5729 5729 5729 5729 5729 5729 5728 5728 5728 5727 5726 5725 5724 5724 5722 5721 5720 5718 5716 5714 5712 5710 5707 5704 5701 5698 5694 5691 5687 5683 5679 5674 5670 5666 5662 5657 5653 5648 5644
5716 5717 5717 5717 5718 5718 5718 5718 5718 5717 5717 5717 5716 5715 5715 5714 5713 5712 5711 5710 5708 5706 5705 5703 5700 5698 5695 5692 5689 5686 5682 5679 5675 5671 5667 5662 5658 5653 5649 5644 5640 5635 5631 5626
5705 5706 5706 5706 5706 5706 5706 5706 5706 5706 5705 5704 5704 5703 5702 5701 5700 5699 5697 5696 5694 5692 5690 5688 5685 5683 5680 5677 5674 5670 5666 5663 5659 5654 5650 5645 5641 5636 5631 5627 5622 5617 5613 5608
5694 5694 5695 5695 5695 5695 5695 5694 5694 5693 5692 5691 5690 5689 5688 5687 5686 5685 5683 5681 5680 5677 5675 5672 5670 5667 5664 5661 5657 5654 5650 5646 5641 5637 5633 5628 5623 5618 5614 5609 5604 5599 5594 5589
5683 5683 5683 5683 5683 5683 5683 5682 5681 5681 5680 5678 5677 5676 5675 5673 5672 5670 5669 5667 5665 5662 5659 5657 5654 5650 5647 5643 5640 5636 5632 5628 5623 5619 5614 5610 5605 5600 5595 5590 5586 5581 5576 5571
5671 5671 5671 5671 5671 5671 5670 5669 5669 5668 5667 5665 5664 5662 5661 5659 5658 5655 5653 5651 5649 5646 5643 5641 5637 5634 5630 5626 5622 5618 5614 5610 5605 5601 5596 5592 5587 5582 5577 5572 5567 5563 5558 5553
5659 5659 5659 5659 5659 5658 5657 5656 5655 5654 5653 5652 5651 5649 5647 5645 5644 5641 5639 5637 5634 5631 5628 5625 5621 5617 5613 5609 5605 5601 5597 5592 5588 5583 5579 5574 5569 5565 5560 5555 5550 5546 5541 5537
5647 5647 5647 5646 5645 5645 5644 5643 5642 5641 5640 5639 5638 5636 5634 5632 5630 5627 5625 5622 5619 5616 5612 5609 5605 5601 5597 5593 5589 5585 5580 5576 5572 5567 5563 5558 5553 5548 5544 5539 5534 5530 5525 5521
5634 5634 5633 5633 5632 5632 5631 5630 5630 5629 5627 5626 5625 5623 5620 5618 5616 5613 5610 5607 5604 5601 5597 5593 5589 5586 5582 5578 5573 5569 5565 5561 5556 5552 5547 5542 5538 5533 5528 5523 5519 5514 5510 5505